Regional Weather Roundup
Issued by NWS Austin/San Antonio, TX

Home | Current Version | Previous Version | Text Only | Print | Product List | Glossary On
Versions: 1 2 3 4 5 6 7 8 9 10 11 12 13 14 15 16 17 18 19 20 21 22 23 24 25 26 27 28 29 30 31 32 33 34 35 36 37 38 39 40 41 42 43 44 45 46 47 48 49 50
000
ASUS44 KEWX 192110
RWREWX
SOUTH TEXAS REGIONAL WEATHER ROUNDUP
NATIONAL WEATHER SERVICE AUSTIN/SAN ANTONIO TX
400 PM CDT THU OCT 19 2017

NOTE: "FAIR" INDICATED FEW OR NO CLOUDS BELOW 12,000 FEET WITH NO
SIGNIFICANT WEATHER AND/OR OBSTRUCTIONS TO VISIBILITY.

* - THESE STATIONS ARE NOT NWS OR FAA STATIONS...AND ARE NOT SUBJECT
    TO NWS AND FAA QUALITY CONTROL.

TXZ171-172-183>190-192200-
TEXAS HILL COUNTRY AND EDWARDS PLATEAU

CITY           SKY/WX    TMP DP  RH WIND       PRES   REMARKS
JUNCTION       SUNNY     78  56  46 S10       30.07F
*LLANO         SUNNY     82  57  42 SE10      30.08F
BURNET         SUNNY     79  57  46 E9G18     30.09F
*HORSESHOE BAY SUNNY     82  58  42 S8        30.07F
*KERRVILLE     MOSUNNY   77  61  58 S13       30.08S
*FREDERICKSBRG PTSUNNY   78  54  43 S10G16    30.08S
*ROCKSPRINGS   NOT AVBL
*BOERNE STAGE  MOSUNNY   79  55  44 SE8       30.08S
*CASTROVILLE   MOSUNNY   83  56  40 SE8       30.05F
HONDO          MOSUNNY   83  60  45 SE10      30.04F
*UVALDE        MOSUNNY   80  61  51 SE10G18   30.04F
DEL RIO        CLOUDY    79  61  53 E15G21    30.00F
LAUGHLIN AFB   PTSUNNY   80  61  53 SE17      30.01F
CARRIZO SPRGS  MOSUNNY   82  61  47 SE7       30.00F
*EAGLE PASS    NOT AVBL
$$

TXZ173-191>194-202-209-217>225-228-192200-
CENTRAL AND SOUTH CENTRAL TEXAS

CITY           SKY/WX    TMP DP  RH WIND       PRES   REMARKS
GEORGETOWN     MOSUNNY   82  56  40 SE8       30.08F
AUSTIN/BERGSTM CLOUDY    82  60  47 SE8       30.05F
AUSTIN/MABRY   MOSUNNY   83  58  42 VRB3      30.07F
*AUSTIN/EXEC   MOSUNNY   81  57  44 S9        30.07F
*LAGO VISTA    CLOUDY    80  58  46 SE8       30.09F
SAN MARCOS     MOSUNNY   82  59  45 SE9       30.06F
NEW BRAUNFELS  PTSUNNY   83  61  47 SE13      30.04F
RANDOLPH AFB   PTSUNNY   83  62  49 SE12      30.04F
PT SAN ANTONIO MOSUNNY   83  62  48 S12       30.03F
SAN ANTONIO    MOSUNNY   84  60  44 S13       30.05F
STINSON FIELD  MOSUNNY   85  61  44 SE10      30.02F
*LA GRANGE     CLOUDY    84  62  47 SE7       30.04F
*GIDDINGS      CLOUDY    83  59  44 SE8       30.07S
*GONZALES      SUNNY     86  62  43 E9        30.04F
$$

TXZ163>164-176>182-195>201-210>213-226-227-235-192200-
SOUTHEAST TEXAS

CITY           SKY/WX    TMP DP  RH WIND       PRES   REMARKS
COLLEGE STN    MOSUNNY   85  58  39 S6        30.06F
*BRYAN         SUNNY     83  58  42 E8        30.08F
*CALDWELL      SUNNY     83  61  47 SE8       30.07F
*CROCKETT        N/A     82  57  42 SE5       30.12S
*BRENHAM       MOSUNNY   85  60  42 SE5       30.07F
HUNTSVILLE     SUNNY     83  59  44 VRB6      30.08F
CONROE         SUNNY     81  62  52 E6        30.08F
HOUSTON BUSH   PTSUNNY   84  62  47 SE10      30.07F
HOUSTON HOBBY  PTSUNNY   81  64  56 E10       30.08S
*HOUSTON SW AP CLOUDY    78  66  65 E9        30.08S
PEARLAND       PTSUNNY   81  63  54 E9        30.09F
HOUSTON HOOKS  MOSUNNY   84  61  45 E9        30.07F
ELLINGTON FLD  PTSUNNY   79  66  65 E8        30.10F
SUGAR LAND     MOSUNNY   83  64  52 SE9       30.06F
*HOUSTON EXEC  SUNNY     82  61  47 E6        30.08S
*CLEVELAND MUN MOSUNNY   82  59  46 E6        30.10S
*WHARTON       MOSUNNY   79  62  55 E5        30.07S
*COLUMBUS      PTSUNNY   84  58  41 SW8       30.07S
*EAGLE LAKE    CLOUDY    85  61  44 SE6       30.05F
$$

TXZ214>216-236>238-192200-
THE UPPER TEXAS COAST

CITY           SKY/WX    TMP DP  RH WIND       PRES   REMARKS
*ORANGE        SUNNY     81  59  47 SE8       30.12S
PORT ARTHUR    SUNNY     80  55  42 E13       30.09F
GALVESTON      SUNNY     79  63  57 NE16      30.09S
ANGLETON       MOSUNNY   81  66  60 E12       30.07S
*BAY CITY      CLOUDY    82  67  61 E9        30.06S
PALACIOS       CLOUDY    80  68  66 E13       30.05F
$$

TXZ229>234-239>247-192200-
TEXAS COASTAL BEND AND RIO GRANDE PLAINS

CITY           SKY/WX    TMP DP  RH WIND       PRES   REMARKS
VICTORIA       LGT RAIN  79  69  71 CALM      30.04F
*BEEVILLE      CLOUDY    83  57  40 E13       30.03S
ROCKPORT       LGT RAIN  78  72  81 E9        30.02F
*PORT ARANSAS  NOT AVBL
*PORT LAVACA   CLOUDY    79  66  64 E13       30.05S
*INGLESIDE     NOT AVBL
CORPUS CHRISTI CLOUDY    81  70  69 E15       30.01F
CORPUS NAS     NOT AVBL
*ROBSTOWN      CLOUDY    83  65  52 E14       30.01F
ALICE          CLOUDY    86  63  45 E16G22    30.01S
KINGSVILLE NAS CLOUDY    84  69  60 E12       30.00F
COTULLA        PTSUNNY   87  59  38 S7        30.00F
*FAITH RANCH   SUNNY     84  61  45 SE7G13    30.00F
LAREDO         SUNNY     88  61  40 SE5       29.99F
$$

TXZ248>255-192200-
DEEP SOUTH TEXAS

CITY           SKY/WX    TMP DP  RH WIND       PRES   REMARKS
BROWNSVILLE    MOSUNNY   87  70  56 VRB7      29.98F HX  92
PORT ISABEL    PTSUNNY   84  72  67 NE13      29.97F
*SOUTH PADRE   NOT AVBL
HARLINGEN      MOSUNNY   84  68  58 NE15      29.97F
*HEBBRONVILLE  CLOUDY    85  61  45 SE13G18   30.02S
MCALLEN        MOSUNNY   90  68  48 NE15      29.97F HX  94
*WESLACO       CLOUDY    85  70  60 NE10G21   29.97F
FALFURRIAS     CLOUDY    85  65  52 SE12      30.00F
EDINBURG       CLOUDY    85  68  56 E12       29.99S
*ZAPATA        MOSUNNY   89  58  33 E12       29.97F
$$

TXZ213>215-236>238-242>244-246-247-251-254-255-192200-
CMAN STATIONS

STATION/POSITION TIME  TEMP    WIND        PRES    WAVE
                       AIR SEA DIR/SP/G            HT/PER
                 (UTC) (F)     (DEG/KT/KT) (MB)    (FT/S)
SABINE PASS      2048   76 77   90/ 11     1020.7
SEA RIM ST PARK  2100   76     110/ 11/ 13 1019.8
NORTH JETTY/GLS  2036      77   70/ 17/ 21 1018.3
EAGLE POINT      2048   75 75  100/ 12/ 14 1018.9
MORGANS POINT    2048   77 77  130/  8/ 13 1018.8
PORT O`CONNOR    2048   77 76   60/ 10/ 12 1016.9
MALAQUITE BEACH  2048   78 79   60/  9/ 11 1016.0
BAFFIN BAY       2048   77 76   60/ 17/ 19 1016.2
PORT ISABEL      2048   80 80   40/ 11/ 14 1015.0
$$




USA.gov is the U.S. government's official web portal to all federal, state and local government web resources and services.